This demonstration page uses our WeatherBlox Daily Observations layout. Learn more.

Left ArrowRight Arrow

Hourly Observations for May 19, 2018

Temp ( °F °C ) Dew Point ( °F °C ) Humidity (%) Winds ( mph kmh ) Pressure ( in mb ) Visibility ( mi km ) Precip ( " mm )
12:53 am 00:53 Clear 43 6.1 42 5.6 97 97 N N/A 30.33 1027 10 16 N/A
1:53 am 01:53 Clear 43 6.1 41 5 93 93 N N/A 30.33 1027 10 16 N/A
2:53 am 02:53 Partly Cloudy 40 4.4 40 4.4 100 100 N N/A 30.33 1027 10 16 N/A
3:53 am 03:53 Cloudy 41 5 40 4.4 96 96 N N/A 30.31 1026 10 16 N/A
4:08 am 04:08 Cloudy 41 5 39 4 93 93 N N/A 30.33 1027 10 16 N/A
4:53 am 04:53 Cloudy 41 5 40 4.4 96 96 S 3 6 30.32 1027 10 16 N/A
5:28 am 05:28 Mostly Cloudy 43 6 41 5 93 93 N N/A 30.36 1028 10 16 N/A
5:53 am 05:53 Cloudy 43 6.1 42 5.6 97 97 N N/A 30.32 1027 10 16 N/A
6:53 am 06:53 Cloudy 45 7.2 43 6.1 93 93 N N/A 30.32 1027 10 16 N/A
7:20 am 07:20 Cloudy 46 8 45 7 93 93 ENE 5 7 30.33 1027 10 16 N/A
7:53 am 07:53 Mostly Cloudy 47 8.3 44 6.7 90 90 E 5 7 30.31 1027 10 16 N/A
8:53 am 08:53 Mostly Cloudy 49 9.4 44 6.7 83 83 E 6 9 30.31 1026 10 16 N/A
9:53 am 09:53 Mostly Cloudy 52 11.1 42 5.6 69 69 E 9 15 30.30 1026 10 16 N/A
10:53 am 10:53 Partly Cloudy 56 13.3 44 6.7 65 65 E 10 17 30.28 1025 10 16 N/A
11:53 am 11:53 Mostly Sunny 57 13.9 38 3.3 49 49 ESE 10 17 30.27 1025 10 16 N/A
12:53 pm 12:53 Partly Cloudy 60 15.6 37 2.8 42 42 SE 22 35 30.24 1024 10 16 N/A
1:53 pm 13:53 Cloudy 58 14.4 39 3.9 50 50 ESE 13 20 30.24 1024 10 16 N/A
2:53 pm 14:53 Cloudy 61 16.1 38 3.3 43 43 SSE 20 31 30.22 1023 10 16 N/A
3:53 pm 15:53 Mostly Sunny 60 15.6 37 2.8 42 42 SE 17 28 30.21 1023 10 16 N/A
4:53 pm 16:53 Mostly Sunny 59 15 39 3.9 48 48 SE 14 22 30.19 1022 10 16 N/A
5:53 pm 17:53 Mostly Cloudy 58 14.4 39 3.9 50 50 SSE 15 24 30.17 1022 10 16 N/A
6:53 pm 18:53 Mostly Sunny 57 13.9 40 4.4 53 53 SE 13 20 30.16 1021 10 16 N/A
7:53 pm 19:53 Sunny 55 12.8 40 4.4 57 57 SE 13 20 30.15 1021 10 16 N/A
8:53 pm 20:53 Sunny 52 11.1 41 5 66 66 SE 12 19 30.15 1021 10 16 N/A
9:53 pm 21:53 Clear 51 10.6 41 5 69 69 SE 9 15 30.15 1021 10 16 N/A
10:53 pm 22:53 Clear 49 9.4 41 5 74 74 SE 5 7 30.14 1021 10 16 N/A
11:53 pm 23:53 Partly Cloudy 47 8.3 41 5 80 80 E 8 13 30.14 1021 10 16 N/A

Powered by AerisWeather